#timestamp,LO_Frequency,Hit,StdDev 
1556269215.7,286046993.2,P
1556269235.5,286046990.5,Y
1556269255.4,286046995.1,P
1556269275.2,286046994.6,P
1556269295.1,286046994.8,P
1556269296.0,286046994.8,Y
1556269315.8,286046999.5,P
1556269335.6,286046998.2,N
1556269355.5,286047000.3,N
1556269375.3,286046999.0,N
1556269395.1,286046999.5,N
1556269415.9,286046998.7,N
1556269435.7,286047000.4,N
1556269455.6,286047002.7,N
1556269475.4,286047000.6,N
1556269495.2,286046998.1,N
1556269515.1,286046999.1,N
1556269516.0,286046999.1,N
1556269535.8,286046998.6,N
1556269555.6,286046999.4,N
1556269575.5,286046999.4,N
1556269595.3,286046997.3,N
1556269615.2,286046996.0,N
1556269635.9,286046996.3,N
1556269655.7,286046994.0,Y
1556269675.6,286046996.3,P
1556269695.4,286046994.2,P
1556269715.2,286046993.4,P
1556269735.1,286046991.8,Y
1556269736.0,286046991.8,P
1556269755.8,286046996.5,N
1556269775.7,286046996.9,N
1556269795.5,286046999.6,N
1556269815.3,286046996.5,N
1556269835.2,286047001.1,N
1556269855.0,286046998.1,N
1556269855.9,286046998.1,N
1556269875.8,286046998.6,N
1556269895.6,286046999.1,N
1556269915.4,286046999.1,N
1556269935.3,286046996.6,N
1556269955.1,286046999.5,N
1556269975.8,286046999.1,N
1556269995.7,286047001.0,N
1556270015.5,286046998.4,N
1556270035.4,286047001.0,N
1556270055.2,286047001.0,N
1556270075.0,286046998.1,N
1556270075.9,286046998.1,N
1556270095.8,286046998.5,N
1556270115.6,286047000.4,N
1556270135.4,286047000.5,N
1556270155.3,286047000.2,N
1556270175.1,286047000.9,N
1556270195.9,286046998.6,N
1556270215.7,286047000.9,N
1556270235.5,286047001.2,N
1556270255.4,286046999.1,N
1556270275.2,286046999.6,N
1556270295.0,286046998.2,N
1556270296.0,286046998.2,N
1556270315.8,286046998.5,N
1556270335.6,286047001.2,N
1556270355.5,286047000.6,N
1556270375.3,286047000.7,N
1556270395.1,286046998.2,N
1556270415.9,286047001.1,N
1556270435.7,286047001.0,N
1556270455.5,286047001.2,N
1556270475.4,286046998.8,N
1556270495.2,286047001.1,N
1556270515.1,286047000.6,N
1556270516.0,286047000.6,N
1556270535.8,286047001.2,N
1556270555.6,286047000.9,N
1556270575.5,286047000.8,N
1556270595.3,286046998.2,N
1556270615.1,286046998.7,N
1556270635.9,286046998.7,N
1556270655.7,286047000.9,N
1556270675.6,286047001.0,N
1556270695.4,286047001.0,N
1556270715.2,286047001.2,N
1556270735.1,286046999.3,N
1556270736.0,286046999.3,N
1556270755.8,286046999.2,N
1556270775.6,286046999.2,N
1556270795.5,286046996.9,N
1556270815.3,286046999.1,N
1556270835.2,286046997.0,N
1556270855.9,286046996.7,N
1556270875.7,286046997.6,N
1556270895.6,286046994.9,Y
1556270915.4,286046997.8,P
1556270935.3,286046997.7,N
1556270955.1,286046997.5,N
1556270956.0,286046997.5,N
1556270975.8,286046995.5,Y
1556270995.7,286046997.7,P
1556271015.5,286046997.9,P
1556271035.3,286046995.0,P
1556271055.2,286046996.1,Y
1556271075.0,286046998.4,P
1556271075.9,286046998.4,N
1556271095.8,286046998.4,N
1556271115.6,286046999.6,N
1556271135.4,286046998.8,N
1556271155.3,286046999.2,N
1556271175.1,286046997.7,Y
1556271195.9,286046999.1,P
1556271215.7,286046998.7,P
1556271235.5,286046997.0,P
1556271255.4,286046996.6,Y
1556271275.2,286046998.6,P
1556271295.1,286046999.2,P
1556271296.0,286046999.2,N
1556271315.8,286046999.3,N
1556271335.6,286046999.0,N
1556271355.5,286046998.4,Y
1556271375.3,286047000.7,P
1556271395.1,286046999.9,N
1556271415.9,286046999.8,N
1556271435.7,286047001.1,N
1556271455.6,286047001.1,N
1556271475.4,286047001.2,N
1556271495.2,286046999.4,N
1556271515.1,286047000.9,N
1556271516.0,286047000.9,N
1556271535.8,286047001.2,N
1556271555.6,286046998.2,N
1556271575.5,286046999.4,N
1556271595.3,286046998.8,N
1556271615.2,286046998.8,N
1556271635.9,286046998.9,N
1556271655.7,286047001.2,N
1556271675.6,286046998.1,N
1556271695.4,286047000.8,N
1556271715.2,286046998.2,N
1556271735.1,286046998.9,N
1556271736.0,286046998.9,N
1556271755.8,286046998.4,N
1556271775.7,286046999.1,N
1556271795.5,286046999.0,N
1556271815.3,286046999.3,N
1556271835.2,286046998.6,N
1556271855.0,286046998.8,N
1556271855.9,286046998.8,N
1556271875.7,286046999.1,N
1556271895.6,286047001.1,N
1556271915.4,286047010.5,Y
1556271935.3,286047010.8,P
1556271955.1,286047007.6,N
1556271956.0,286047007.6,N
1556271975.8,286047000.3,N
1556271995.7,286046994.9,N
1556272015.5,286046994.6,N
1556272035.3,286046992.1,N
1556272055.2,286046988.5,N
1556272075.0,286046989.0,N
1556272075.9,286046989.0,N
1556272095.8,286046987.0,N
1556272115.6,286046990.0,N
1556272135.4,286046990.0,N
1556272155.3,286046987.2,N
1556272175.1,286046989.5,N
1556272195.9,286046988.6,N
1556272215.7,286046989.2,N
1556272235.5,286046989.4,N
1556272255.4,286046989.5,N
1556272275.2,286046987.1,N
1556272295.0,286046985.3,N
1556272296.0,286046985.3,N
1556272315.8,286046986.5,N
1556272335.6,286046986.8,N
1556272355.5,286046986.6,N
1556272375.3,286046986.8,N
1556272395.1,286046983.9,N
1556272415.9,286046982.6,N
1556272435.7,286046984.7,N
1556272455.6,286046986.5,N
1556272475.4,286046984.1,N
1556272495.2,286046983.9,N
1556272515.1,286046984.3,Y
1556272516.0,286046984.3,P
1556272535.8,286046991.9,P
1556272555.6,286046991.8,N
1556272575.5,286046994.0,N
1556272595.3,286046993.3,N
1556272615.2,286046995.2,N
1556272635.9,286046993.7,N
1556272655.7,286046995.5,N
1556272675.6,286046994.9,N
1556272695.4,286046996.8,N
1556272715.3,286046997.8,N
1556272735.1,286046997.2,N
1556272736.0,286046997.2,N
1556272755.8,286046999.5,N
1556272775.7,286046999.5,N
1556272795.5,286046999.5,N
